{"data":{"norad_id":59547,"intl_designator":"2024-074P","name":"STARLINK-31736","alt_names":[],"object_type":"PAYLOAD","status":"ACTIVE","operator":null,"country":"US","launch_date":"2024-04-18","launch_site_code":"AFETR","launch_vehicle":null,"mission":null,"orbit_class":"UNKNOWN","rcs_meters":null,"size_class":null,"mass_kg":null,"dimensions":null,"purposes":["comms"],"wikipedia_slug":null,"has_3d_model":false,"image_url":null,"decayed_at":null,"tle_current":{"epoch":"2026-09-21T10:48:10.826784Z","epoch_age_seconds":86158,"freshness":"FRESH","line1":"1 59547U 24074P   26264.45012531  .00002018  00000+0  82791-4 0  9999","line2":"2 59547  43.0035 311.0162 0001182 278.8009  81.2709 15.27594238136033","mean_motion":15.27594238,"eccentricity":0.0001182,"inclination_deg":43.0035,"raan_deg":311.0162,"arg_perigee_deg":278.8009,"mean_anomaly_deg":81.2709,"bstar":8.2791e-5,"rev_number":13603,"period_min":94.265870096847,"perigee_km":482.19547551941,"apogee_km":483.81744983399,"semimajor_km":6861.1434626767,"source":"CELESTRAK","updated_at":"2026-09-22T09:00:48.973879Z"}}}